Вернуться в каталог

METEOR 2-12

АктивенПогодаPO
NORAD 15516·PAYLOAD·🇷🇺 Russia

Запущен Feb 6, 1985 с Plesetsk Cosmodrome

Loading…

Ближайшие Пролёты (ближайшие 24 часа)

TLE

СвежийSource: Space-Track

Эпоха: Sep 14, 2026, 00:38 UTC

1 15516U 85013A   26257.02647808  .00000027  00000-0  10129-4 0  9998
2 15516  82.5272 260.8712 0016215  33.8899 326.3295 13.85870914104110

Отслеживайте METEOR 2-12 в реальном времени с AllMySat

Download on the App Store